Satellite-Ground Cal/Val Region Overpasses Predictions

Prediction of Satellite NPP Overpassing Cal/Val Region: PacNW

Region Location: (Latitude: 10.00, Longitude: 139.50) to (Latitude: 22.70, Longitude: 165.60).

Table of predicted overpasses for the next 14.0 days since TLE Epoch: 6/14/2019
Interval Starting Time Starting Location Ending Time Ending Location
1 06/15/2019 02:39:26 ( 10.01, 159.84) 06/15/2019 02:43:02 ( 22.69, 156.82)
2 06/15/2019 15:11:20 ( 22.67, 157.07) 06/15/2019 15:14:55 ( 10.05, 154.07)
3 06/16/2019 02:20:25 ( 10.01, 164.60) 06/16/2019 02:24:01 ( 22.69, 161.58)
4 06/16/2019 14:52:18 ( 22.67, 161.83) 06/16/2019 14:55:53 ( 10.05, 158.83)
5 06/17/2019 03:42:53 ( 10.02, 143.98) 06/17/2019 03:46:29 ( 22.70, 140.96)
6 06/17/2019 14:34:26 ( 18.62, 165.59) 06/17/2019 14:36:52 ( 10.04, 163.58)
7 06/17/2019 16:14:47 ( 22.66, 141.21) 06/17/2019 16:16:47 ( 15.62, 139.50)
8 06/18/2019 03:23:52 ( 10.02, 148.74) 06/18/2019 03:27:28 ( 22.70, 145.72)
9 06/18/2019 15:55:45 ( 22.66, 145.97) 06/18/2019 15:59:20 ( 10.04, 142.96)
10 06/19/2019 03:04:50 ( 10.02, 153.49) 06/19/2019 03:08:26 ( 22.70, 150.47)
11 06/19/2019 15:36:44 ( 22.66, 150.72) 06/19/2019 15:40:19 ( 10.04, 147.72)
12 06/20/2019 02:45:49 ( 10.02, 158.25) 06/20/2019 02:49:24 ( 22.64, 155.25)
13 06/20/2019 15:17:42 ( 22.66, 155.48) 06/20/2019 15:21:17 ( 10.04, 152.48)
14 06/21/2019 02:26:47 ( 10.02, 163.01) 06/21/2019 02:30:22 ( 22.64, 160.00)
15 06/21/2019 14:58:41 ( 22.65, 160.24) 06/21/2019 15:02:16 ( 10.03, 157.23)
16 06/22/2019 02:10:23 ( 19.24, 165.60) 06/22/2019 02:11:21 ( 22.65, 164.76)
17 06/22/2019 03:49:16 ( 10.03, 142.39) 06/22/2019 03:52:43 ( 22.18, 139.50)
18 06/22/2019 14:39:40 ( 22.65, 164.99) 06/22/2019 14:43:15 ( 10.03, 161.99)
19 06/22/2019 16:21:09 ( 22.65, 139.62) 06/22/2019 16:21:17 ( 22.18, 139.50)
20 06/23/2019 03:30:14 ( 10.03, 147.14) 06/23/2019 03:33:49 ( 22.65, 144.14)
21 06/23/2019 16:02:08 ( 22.65, 144.37) 06/23/2019 16:05:43 ( 10.03, 141.37)
22 06/24/2019 03:11:13 ( 10.03, 151.90) 06/24/2019 03:14:48 ( 22.65, 148.90)
23 06/24/2019 15:43:07 ( 22.64, 149.13) 06/24/2019 15:46:42 ( 10.02, 146.13)
24 06/25/2019 02:52:11 ( 10.04, 156.66) 06/25/2019 02:55:46 ( 22.66, 153.65)
25 06/25/2019 15:24:05 ( 22.64, 153.89) 06/25/2019 15:27:40 ( 10.02, 150.88)
26 06/26/2019 02:33:10 ( 10.04, 161.41) 06/26/2019 02:36:45 ( 22.66, 158.41)
27 06/26/2019 15:05:03 ( 22.70, 158.66) 06/26/2019 15:08:39 ( 10.02, 155.64)
28 06/27/2019 02:14:51 ( 12.57, 165.59) 06/27/2019 02:17:43 ( 22.66, 163.16)
29 06/27/2019 03:55:38 ( 10.04, 140.79) 06/27/2019 03:57:12 ( 15.57, 139.51)
30 06/27/2019 14:46:01 ( 22.70, 163.41) 06/27/2019 14:49:37 ( 10.02, 160.40)
31 06/28/2019 03:36:37 ( 10.05, 145.55) 06/28/2019 03:40:12 ( 22.67, 142.54)
32 06/28/2019 14:30:03 ( 11.95, 165.60) 06/28/2019 14:30:36 ( 10.01, 165.15)


NCC Satellite Cal/Val Overpasses Prediction Service
